[[{"header":{"parameterUnit":"m.s-1","parameterCategory":2,"la1":30.2991,"la2":30.254,"lo1":-89.0895,"lo2":-89.0444,"dy":0.0017,"dx":0.0017,"nx":28,"ny":28,"refTime":"2025-08-04T21:00:00:Z","depth":"0","parameterNumber":2,"parameterNumberName":"U-component_of_CURRENTS"},"data":[0,0,0,0,0,0,0,0,0,0,0,0,0,0,0,0,0,0,0,0,0,0,0,0,0,0,0,0,0,0,0,0,0,0,0,0,0,0,0,0,0,0,0,0,0,0,0,0,0,0,0,0,0,0,0,0,0,0,0.2852,0.2853,0,0.2983,0.2985,0.2986,0.3038,0.3037,0.3036,0.3035,0.32,0.3205,0.321,0,0,0,0,0,0,0,0,0,0,0,0,0,0.2807,0.2807,0.2852,0.2853,0.2854,0.2982,0.2985,0.2987,0.3038,0.3037,0.3036,0.3035,0.3199,0.3205,0.3211,0,0,0,0,0,0,0,0,0,0,0,0,0,0.2875,0.2807,0.2852,0.2892,0.2897,0.2982,0.2985,0.2987,0.3038,0.3037,0.3036,0.3035,0.3197,0.3204,0.3212,0.3281,0,0,0.3235,0.3238,0,0,0,0,0,0,0,0,0.287,0.2877,0.2885,0.2889,0.2895,0.2989,0.3029,0.3086,0.3038,0.2989,0.3035,0.3034,0.3131,0.3144,0.3177,0.3289,0.3296,0.3236,0.324,0.3244,0.3246,0,0,0,0,0,0,0,0.2866,0.2872,0.2908,0.2886,0.2892,0.2958,0.2966,0.3041,0.3069,0.2993,0.2996,0.3004,0.3134,0.3169,0.3181,0.3299,0.3235,0.3242,0.3247,0.325,0.3581,0.3585,0,0,0,0,0,0,0.2833,0.2867,0.2904,0.2912,0.2875,0.2959,0.2968,0.2963,0.3067,0.308,0.3005,0.3006,0.3157,0.3172,0.3187,0.3353,0.3244,0.3251,0.3255,0.3577,0.3582,0.3587,0,0,0,0,0,0,0.2832,0.2835,0.2899,0.289,0.2902,0.2959,0.2955,0.2966,0.3003,0.3075,0.3089,0.3029,0.3156,0.3176,0.3287,0.3357,0.3254,0.3261,0.3572,0.3578,0.3584,0.3636,0,0,0,0,0,0,0.283,0.2833,0.2831,0.2887,0.2901,0.2979,0.2956,0.297,0.3007,0.301,0.3101,0.3114,0.3157,0.3276,0.3295,0.3365,0.3267,0.3567,0.3575,0.3582,0.3629,0.3644,0.3656,0,0,0,0,0,0.2828,0.2839,0.283,0.2835,0.2891,0.2981,0.2998,0.3037,0.3009,0.3058,0.3114,0.3112,0.334,0.3286,0.3307,0.3381,0.3563,0.3573,0.3582,0.3623,0.3641,0.3656,0,0,0,0,0,0,0.2822,0.2846,0.2837,0.2853,0.2919,0.2989,0.3027,0.3039,0.3119,0.3116,0.3162,0.3185,0.3316,0.3344,0.3282,0.3505,0.3453,0.3467,0.3478,0.3495,0.3508,0.3549,0.3273,0,0,0,0,0,0.2813,0.2827,0.2872,0.2891,0.2915,0.2964,0.3001,0.3034,0.3101,0.3133,0.3193,0.3271,0.3375,0.3424,0.3519,0.3629,0.3672,0.3696,0.3709,0.3719,0.3772,0.3891,0.3919,0.3618,0.3618,0.3617,0,0,0.2816,0.283,0.2839,0.2892,0.2933,0.3026,0.2987,0.3056,0.3146,0.3141,0.3274,0.3323,0.3417,0.3556,0.3616,0.3584,0.3824,0.3732,0.374,0.3788,0.3904,0.3933,0.3959,0.3624,0.3623,0.3622,0,0,0.2877,0.2841,0.2898,0.2956,0.3025,0.3065,0.3081,0.316,0.3204,0.3331,0.3356,0.3452,0.359,0.3683,0.3744,0.3891,0.3894,0.3904,0.4001,0.4115,0.414,0.4163,0.4221,0.4249,0.3903,0.3904,0.3904,0,0.2892,0.2958,0.2938,0.3029,0.309,0.3084,0.3197,0.3253,0.3364,0.3424,0.339,0.362,0.3672,0.3862,0.3913,0.3924,0.3963,0.3918,0.413,0.4154,0.4176,0.423,0.4261,0.3907,0.3907,0.3906,0.3906,0,0.3038,0.3081,0.3122,0.3225,0.3286,0.3379,0.344,0.3506,0.3528,0.3594,0.3758,0.3827,0.3961,0.3987,0.4,0.4192,0.4157,0.4129,0.4076,0.4209,0.4258,0.4288,0.3913,0.3911,0.391,0.3909,0,0,0.311,0.3209,0.3225,0.3283,0.3399,0.3456,0.3592,0.3729,0.3794,0.3899,0.4022,0.419,0.418,0.4252,0.4258,0.4353,0.4514,0.4308,0.4312,0.4345,0.4735,0.4589,0.4606,0.4508,0.4515,0.452,0.4689,0,0.3251,0.3419,0.3446,0.3605,0.3695,0.3723,0.3836,0.394,0.4,0.4104,0.4191,0.4303,0.4291,0.4318,0.4432,0.4489,0.4604,0.447,0.4623,0.4628,0.4465,0.4642,0.4408,0.453,0.4719,0.4724,0.4727,0,0.3427,0.3497,0.3668,0.3763,0.3802,0.3884,0.4011,0.4113,0.4246,0.4288,0.4414,0.4449,0.462,0.4551,0.4788,0.4694,0.4756,0.4791,0.4797,0.4678,0.4542,0.444,0.4578,0.4405,0.4774,0.477,0.4766,0,0.3503,0.3658,0.3775,0.3824,0.3936,0.3994,0.4054,0.4175,0.4224,0.4383,0.4416,0.4626,0.4666,0.4838,0.4894,0.4866,0.5102,0.5063,0.5011,0.4997,0.4845,0.4807,0.4824,0.5285,0.5285,0.5284,0.5284,0,0.3656,0.3743,0.3795,0.3851,0.3941,0.4019,0.4104,0.4186,0.4281,0.4337,0.4482,0.4542,0.4738,0.4858,0.4964,0.506,0.5171,0.5092,0.5067,0.4849,0.4812,0.4688,0.4627,0.5291,0.5289,0.5288,0.5287,0,0.3714,0.3781,0.387,0.3951,0.3968,0.4012,0.4059,0.41,0.421,0.4279,0.4325,0.4497,0.4661,0.4822,0.5048,0.5086,0.5071,0.5231,0.4925,0.4863,0.4647,0.4597,0.4555,0.4428,0.5254,0.5252,0.525,0,0.3769,0.3818,0.3867,0.386,0.3876,0.3927,0.394,0.4047,0.4066,0.4231,0.4248,0.443,0.4534,0.4791,0.4902,0.5086,0.4968,0.4955,0.4894,0.4656,0.4586,0.4445,0.4332,0.4705,0.4699,0.4694,0.469,0,0.3791,0.3781,0.3803,0.3784,0.3779,0.3782,0.3808,0.3811,0.3929,0.4003,0.4088,0.42,0.4428,0.4493,0.4693,0.4786,0.4674,0.4857,0.4725,0.428,0.4025,0.3876,0.4532,0.4646,0.465,0.4654,0.4656,0.4658,0.3735,0.3712,0.3686,0.3657,0.3647,0.3592,0.3549,0.3591,0.3612,0.3677,0.3875,0.3984,0.4151,0.4401,0.443,0.4295,0.4385,0.4217,0.4215,0.4125,0.3885,0.4414,0.4415,0.4418,0.442,0.4422,0.4424,0,0.3617,0.3582,0.355,0.3472,0.3393,0.3446,0.341,0.3342,0.3316,0.3475,0.3566,0.37,0.3752,0.3854,0.3817,0.3685,0.3565,0.3581,0.3347,0.3303,0.3876,0.3727,0.3437,0.3437,0.3437,0.3438,0.3438,0.3438,0.3543,0.3448,0.3414,0.3225,0.3173,0.3012,0.2967,0.2926,0.2988,0.3015,0.3084,0.3248,0.341,0.343,0.3247,0.3176,0.2944,0.2797,0.2846,0.3235,0.3293,0.3348,0.3193,0.2796,0.2795,0.211,0.2104,0.21]},{"header":{"parameterUnit":"m.s-1","parameterCategory":2,"la1":30.2991,"la2":30.254,"lo1":-89.0895,"lo2":-89.0444,"dy":0.0017,"dx":0.0017,"nx":28,"ny":28,"refTime":"2025-08-04T21:00:00:Z","depth":"0","parameterNumber":3,"parameterNumberName":"V-component_of_CURRENTS"},"data":[0,0,0,0,0,0,0,0,0,0,0,0,0,0,0,0,0,0,0,0,0,0,0,0,0,0,0,0,0,0,0,0,0,0,0,0,0,0,0,0,0,0,0,0,0,0,0,0,0,0,0,0,0,0,0,0,0,0,0.0095,0.0095,0,0.007,0.007,0.007,0.0023,0.0022,0.0021,0.002,-0.0037,-0.0037,-0.0038,0,0,0,0,0,0,0,0,0,0,0,0,0,0.0151,0.015,0.0096,0.0095,0.0095,0.007,0.007,0.0069,0.0023,0.0022,0.0021,0.002,-0.0036,-0.0037,-0.0038,0,0,0,0,0,0,0,0,0,0,0,0,0,0.0128,0.0149,0.0096,0.0067,0.0064,0.007,0.007,0.0069,0.0024,0.0022,0.0021,0.0019,-0.0036,-0.0037,-0.0038,-0.0011,0,0,-0.004,-0.0041,0,0,0,0,0,0,0,0,0.0129,0.0126,0.0072,0.0069,0.0066,0.0047,0.0068,0.004,0.0024,0.0041,0.002,0.0018,-0.0012,-0.0015,-0.0013,-0.0014,-0.0016,-0.004,-0.0041,-0.0041,-0.0041,0,0,0,0,0,0,0,0.0131,0.0127,0.0087,0.0071,0.0068,0.0071,0.0066,0.0063,0.0025,0.0039,0.0036,0.003,-0.0014,-0.0012,-0.0015,-0.0017,-0.004,-0.0041,-0.0042,-0.0042,0.0072,0.0075,0,0,0,0,0,0,0.0129,0.0128,0.0088,0.0086,0.0092,0.0071,0.0066,0.0056,0.0025,0.0019,0.0032,0.0028,-0.001,-0.0014,-0.0017,0.0078,-0.0041,-0.0042,-0.0042,0.0068,0.0073,0.0076,0,0,0,0,0,0,0.0131,0.0126,0.0089,0.0106,0.0101,0.0072,0.0061,0.0056,0.0055,0.0019,0.0012,0.0035,-0.0011,-0.0016,0.0008,0.0073,-0.0042,-0.0043,0.0064,0.007,0.0075,0.0226,0,0,0,0,0,0,0.0132,0.0126,0.0128,0.0105,0.01,0.0111,0.0062,0.0057,0.0053,0.0049,0.002,0.0013,-0.0013,0.001,0.0008,0.007,-0.0044,0.006,0.0067,0.0073,0.0217,0.0236,0.0253,0,0,0,0,0,0.0134,0.015,0.0128,0.0123,0.0099,0.0112,0.0111,0.0086,0.0055,0.0075,0.0063,0.0014,0.005,0.0012,0.0009,0.0072,0.0057,0.0065,0.0072,0.0209,0.0232,0.0252,0,0,0,0,0,0,0.0178,0.0146,0.0121,0.0125,0.0123,0.0104,0.0116,0.0094,0.0099,0.0094,0.0051,0.0046,0.0097,0.0065,0.0024,0.0127,0.0049,0.0057,0.0154,0.0176,0.0194,0.0245,-0.0044,0,0,0,0,0,0.0186,0.019,0.0161,0.0171,0.0165,0.014,0.0141,0.0129,0.0124,0.0123,0.0107,0.0104,0.013,0.0134,0.0144,0.0191,0.0173,0.0233,0.0251,0.0266,0.0309,0.0339,0.0364,0.0102,0.0102,0.0102,0,0,0.0206,0.0191,0.0192,0.0181,0.017,0.0214,0.0138,0.0153,0.0212,0.0118,0.0189,0.0163,0.0157,0.0222,0.0241,0.0199,0.0329,0.0276,0.0289,0.0324,0.035,0.0375,0.0398,0.0108,0.0107,0.0106,0,0,0.0284,0.0232,0.0276,0.0279,0.0275,0.0267,0.0274,0.0264,0.0277,0.0331,0.0295,0.0317,0.0332,0.0359,0.0371,0.0495,0.0424,0.0483,0.0613,0.0642,0.0664,0.0683,0.0678,0.0696,0.049,0.049,0.0491,0,0.0316,0.0359,0.0296,0.0348,0.0371,0.03,0.0376,0.0389,0.0399,0.0436,0.0378,0.0448,0.0418,0.0531,0.057,0.0539,0.0523,0.0526,0.0665,0.0684,0.07,0.0691,0.0709,0.0499,0.0498,0.0497,0.0496,0,0.0441,0.0471,0.0496,0.054,0.0557,0.0602,0.0603,0.0638,0.0625,0.0636,0.0722,0.069,0.0735,0.0724,0.0681,0.0801,0.0738,0.0682,0.0608,0.0736,0.0718,0.0733,0.0511,0.0508,0.0505,0.0503,0,0,0.0535,0.0579,0.0592,0.064,0.0661,0.0693,0.0791,0.0865,0.0942,0.0937,0.1055,0.1071,0.1023,0.1037,0.0982,0.0996,0.1072,0.0893,0.089,0.0885,0.1114,0.1013,0.1018,0.1026,0.103,0.1034,0.1047,0,0.0663,0.079,0.079,0.0924,0.098,0.0962,0.1063,0.1114,0.1135,0.1224,0.1206,0.1276,0.1154,0.1171,0.1177,0.1104,0.1123,0.1073,0.0996,0.0995,0.0886,0.1037,0.0928,0.0928,0.1062,0.1064,0.1066,0,0.0803,0.0864,0.1006,0.1107,0.1134,0.121,0.1332,0.1416,0.1502,0.1521,0.1571,0.1538,0.1588,0.1449,0.142,0.1385,0.1285,0.1206,0.1203,0.1076,0.0924,0.0826,0.0949,0.0721,0.1088,0.1086,0.1085,0,0.0895,0.1024,0.1139,0.1169,0.1268,0.1349,0.1416,0.1505,0.1594,0.1709,0.1771,0.1801,0.1811,0.1734,0.1554,0.1499,0.1491,0.139,0.1215,0.1204,0.1086,0.1058,0.0983,0.1401,0.1401,0.1401,0.1401,0,0.1029,0.1121,0.1186,0.1244,0.1399,0.1438,0.1608,0.1676,0.1799,0.1927,0.192,0.2012,0.1877,0.1836,0.167,0.1497,0.1585,0.1291,0.123,0.1132,0.1109,0.088,0.0775,0.1401,0.1401,0.1401,0.1401,0,0.1114,0.1155,0.1279,0.1393,0.1435,0.1541,0.1699,0.1819,0.1917,0.2091,0.2139,0.2178,0.2124,0.1968,0.1826,0.1628,0.1344,0.1394,0.127,0.1195,0.0797,0.0705,0.062,0.0539,0.1228,0.1226,0.1224,0,0.1177,0.1242,0.136,0.1423,0.1477,0.1623,0.1728,0.1861,0.1992,0.2187,0.2288,0.2297,0.2323,0.2081,0.1754,0.1493,0.129,0.1182,0.1069,0.0812,0.0666,0.0607,0.0542,0.0961,0.0958,0.0955,0.0952,0,0.1274,0.1294,0.1375,0.1498,0.1606,0.1755,0.1921,0.2041,0.2218,0.2363,0.253,0.2572,0.2339,0.2029,0.1641,0.1418,0.1,0.1109,0.0896,0.0525,0.0409,0.0286,0.0887,0.0925,0.0928,0.093,0.0931,0.0933,0.1317,0.1375,0.1449,0.1577,0.1703,0.1875,0.2007,0.2194,0.2404,0.2644,0.2672,0.276,0.2259,0.1723,0.1414,0.071,0.0814,0.0472,0.0404,0.0385,0.0254,0.0787,0.0716,0.0717,0.0718,0.0719,0.072,0,0.1345,0.1406,0.1526,0.1667,0.1811,0.1877,0.2124,0.2267,0.2506,0.2721,0.2858,0.2606,0.2014,0.1419,0.0494,0.0076,-0.0048,-0.0152,-0.0266,-0.028,0.0225,0.0153,-0.0107,-0.0107,-0.0107,-0.0107,-0.0106,-0.0106,0.1352,0.1441,0.1504,0.1718,0.1831,0.2025,0.2164,0.2388,0.2583,0.2766,0.2791,0.2814,0.2209,0.0677,-0.0335,-0.0539,-0.0778,-0.0861,-0.0896,-0.0607,-0.0554,-0.0504,-0.0596,-0.101,-0.1011,-0.1402,-0.1407,-0.141]}],[{"header":{"parameterUnit":"m.s-1","parameterCategory":2,"la1":30.2991,"la2":30.254,"lo1":-89.0895,"lo2":-89.0444,"dy":0.0017,"dx":0.0017,"nx":28,"ny":28,"refTime":"2025-08-04T21:00:00:Z","depth":"2","parameterNumber":2,"parameterNumberName":"U-component_of_CURRENTS"},"data":[0,0,0,0,0,0,0,0,0,0,0,0,0,0,0,0,0,0,0,0,0,0,0,0,0,0,0,0,0,0,0,0,0,0,0,0,0,0,0,0,0,0,0,0,0,0,0,0,0,0,0,0,0,0,0,0,0,0,0.2494,0.2495,0,0.2575,0.2576,0.2577,0.2573,0.2572,0.2571,0.257,0.272,0.2724,0.2729,0,0,0,0,0,0,0,0,0,0,0,0,0,0.24,0.2401,0.2494,0.2495,0.2496,0.2575,0.2576,0.2577,0.2574,0.2572,0.2571,0.257,0.2718,0.2724,0.273,0,0,0,0,0,0,0,0,0,0,0,0,0,0.2456,0.2402,0.2493,0.2505,0.2507,0.2575,0.2576,0.2577,0.2574,0.2572,0.2571,0.2569,0.2716,0.2723,0.273,0.2806,0,0,0.2753,0.2756,0,0,0,0,0,0,0,0,0.2452,0.2459,0.2502,0.2504,0.2507,0.2564,0.2598,0.2658,0.2574,0.2547,0.257,0.2569,0.2676,0.2687,0.2702,0.2813,0.2819,0.2754,0.2758,0.2761,0.2763,0,0,0,0,0,0,0,0.2448,0.2456,0.2524,0.2504,0.2506,0.2529,0.2534,0.2609,0.2619,0.2549,0.2549,0.2562,0.2677,0.2695,0.2706,0.2821,0.2753,0.276,0.2764,0.2767,0.309,0.3094,0,0,0,0,0,0,0.244,0.2452,0.2522,0.2527,0.2477,0.2532,0.2538,0.2546,0.2617,0.2626,0.2563,0.2561,0.2683,0.2697,0.2711,0.2864,0.2761,0.2768,0.2772,0.3086,0.3091,0.3096,0,0,0,0,0,0,0.2438,0.2446,0.2518,0.2493,0.2504,0.2534,0.2544,0.2548,0.2577,0.2627,0.2636,0.2588,0.2682,0.2701,0.2801,0.2867,0.2771,0.2778,0.3081,0.3088,0.3093,0.3132,0,0,0,0,0,0,0.2435,0.2444,0.2453,0.2492,0.2505,0.2555,0.2546,0.2551,0.2587,0.2586,0.2653,0.2663,0.2683,0.279,0.2809,0.2875,0.2784,0.3076,0.3084,0.3091,0.3125,0.3139,0.315,0,0,0,0,0,0.2431,0.2451,0.2453,0.2462,0.2514,0.2556,0.2565,0.2581,0.259,0.2602,0.2665,0.2662,0.2853,0.2799,0.282,0.289,0.3072,0.3082,0.3091,0.312,0.3136,0.315,0,0,0,0,0,0,0.2415,0.2454,0.2457,0.2486,0.2516,0.2556,0.2583,0.2597,0.2657,0.2661,0.271,0.2727,0.2835,0.2873,0.2812,0.3012,0.2966,0.298,0.2981,0.2997,0.3009,0.2986,0.279,0,0,0,0,0,0.2416,0.2441,0.2475,0.25,0.2521,0.2558,0.2582,0.2586,0.2641,0.2664,0.273,0.281,0.2893,0.2948,0.3012,0.313,0.3123,0.3196,0.3208,0.3218,0.3218,0.3289,0.3306,0.3126,0.3126,0.3126,0,0,0.2416,0.2443,0.2455,0.2498,0.2531,0.2592,0.2569,0.2604,0.2667,0.2677,0.2805,0.2847,0.2931,0.3046,0.3102,0.3087,0.3259,0.323,0.3237,0.3232,0.33,0.3317,0.3332,0.3133,0.3132,0.3131,0,0,0.2452,0.2457,0.2503,0.2542,0.2588,0.2609,0.2626,0.2683,0.2717,0.283,0.2856,0.2935,0.3088,0.3143,0.3197,0.3329,0.3309,0.3369,0.3429,0.3499,0.3512,0.3524,0.3489,0.3498,0.3391,0.3391,0.3391,0,0.2459,0.2508,0.2521,0.2593,0.2616,0.263,0.2679,0.2746,0.2832,0.2882,0.2879,0.309,0.3136,0.3281,0.3318,0.3353,0.3356,0.3355,0.3509,0.3521,0.3533,0.3494,0.3503,0.3394,0.3394,0.3393,0.3393,0,0.2541,0.2587,0.2622,0.271,0.2736,0.2772,0.2839,0.29,0.2946,0.3016,0.315,0.3213,0.3335,0.3372,0.3387,0.3514,0.3472,0.3495,0.3452,0.3552,0.3506,0.3514,0.3398,0.3397,0.3396,0.3396,0,0,0.2548,0.2652,0.2668,0.2705,0.2779,0.2805,0.2917,0.3005,0.3087,0.3198,0.3305,0.3444,0.3465,0.3525,0.3552,0.3608,0.3662,0.3591,0.3594,0.352,0.3748,0.3637,0.3634,0.3719,0.3722,0.3725,0.3661,0,0.2605,0.2695,0.2746,0.2842,0.2876,0.2924,0.3026,0.3113,0.3188,0.3314,0.3404,0.3525,0.3538,0.3575,0.3646,0.3671,0.3697,0.3672,0.3694,0.3692,0.3555,0.3647,0.3405,0.3325,0.3669,0.3671,0.3672,0,0.2657,0.2708,0.2763,0.2859,0.2885,0.2958,0.3041,0.3154,0.333,0.3399,0.3534,0.3597,0.3725,0.3694,0.3805,0.3795,0.3773,0.3766,0.3765,0.3656,0.3601,0.3297,0.3327,0.3686,0.3684,0.3683,0.3683,0,0.2565,0.2715,0.2725,0.2765,0.2895,0.294,0.303,0.3172,0.3282,0.3459,0.3542,0.3691,0.3792,0.3821,0.3835,0.3832,0.3896,0.3894,0.3754,0.3741,0.3536,0.3501,0.3934,0.3934,0.3935,0.3935,0.3935,0,0.2543,0.2583,0.2697,0.2715,0.2803,0.2901,0.3017,0.3138,0.3313,0.3458,0.3597,0.3695,0.3841,0.3897,0.3857,0.3837,0.3931,0.3763,0.3745,0.3538,0.3507,0.3834,0.3823,0.3932,0.3933,0.3933,0.3934,0,0.2439,0.2488,0.2573,0.2712,0.275,0.2835,0.3035,0.3134,0.331,0.3485,0.355,0.3762,0.3847,0.3895,0.3937,0.3884,0.3835,0.3781,0.3477,0.3426,0.3607,0.36,0.3627,0.3623,0.3619,0.3617,0.3614,0,0.2392,0.2397,0.2561,0.2619,0.2692,0.2827,0.2905,0.3107,0.3228,0.3498,0.3575,0.3731,0.3772,0.3791,0.3751,0.3652,0.3746,0.3354,0.3321,0.3609,0.3589,0.3587,0.3584,0.303,0.3023,0.3017,0.3013,0,0.2335,0.2387,0.2466,0.2583,0.267,0.2786,0.2932,0.3005,0.3247,0.3344,0.3468,0.3494,0.3598,0.3443,0.3389,0.3297,0.3359,0.3235,0.3659,0.3159,0.3046,0.3027,0.3044,0.2962,0.2968,0.2971,0.2974,0.2976,0.2329,0.2396,0.2478,0.2592,0.2678,0.2728,0.276,0.2865,0.2952,0.3054,0.3199,0.3146,0.3218,0.3012,0.2894,0.2852,0.3068,0.2922,0.294,0.2964,0.2921,0.2811,0.2668,0.2671,0.2673,0.2676,0.2678,0,0.2355,0.2401,0.2481,0.2591,0.2619,0.27,0.2761,0.2716,0.2688,0.2765,0.2764,0.2517,0.2422,0.2507,0.2374,0.2347,0.2328,0.225,0.2225,0.2277,0.2323,0.2248,0.1815,0.1812,0.1809,0.1807,0,0,0.2351,0.2415,0.2444,0.2471,0.2555,0.2515,0.251,0.2382,0.2362,0.2203,0.2153,0.2275,0.2413,0.207,0.2039,0.1916,0.2073,0.1837,0.2537,0.256,0.2602,0.2727,0.2672,0,0,0,0,0]},{"header":{"parameterUnit":"m.s-1","parameterCategory":2,"la1":30.2991,"la2":30.254,"lo1":-89.0895,"lo2":-89.0444,"dy":0.0017,"dx":0.0017,"nx":28,"ny":28,"refTime":"2025-08-04T21:00:00:Z","depth":"2","parameterNumber":3,"parameterNumberName":"V-component_of_CURRENTS"},"data":[0,0,0,0,0,0,0,0,0,0,0,0,0,0,0,0,0,0,0,0,0,0,0,0,0,0,0,0,0,0,0,0,0,0,0,0,0,0,0,0,0,0,0,0,0,0,0,0,0,0,0,0,0,0,0,0,0,0,-0.0091,-0.0091,0,-0.0143,-0.0143,-0.0144,-0.0182,-0.0182,-0.0183,-0.0183,-0.0312,-0.0315,-0.0318,0,0,0,0,0,0,0,0,0,0,0,0,0,-0.0054,-0.0054,-0.0091,-0.0091,-0.0092,-0.0142,-0.0143,-0.0144,-0.0182,-0.0182,-0.0183,-0.0183,-0.0311,-0.0314,-0.0318,0,0,0,0,0,0,0,0,0,0,0,0,0,-0.0084,-0.0054,-0.0091,-0.0117,-0.012,-0.0142,-0.0143,-0.0144,-0.0182,-0.0182,-0.0183,-0.0183,-0.0309,-0.0314,-0.0318,-0.0337,0,0,-0.0333,-0.0335,0,0,0,0,0,0,0,0,-0.0082,-0.0085,-0.0113,-0.0115,-0.0119,-0.0156,-0.0177,-0.0212,-0.0182,-0.0158,-0.0183,-0.0184,-0.0266,-0.0275,-0.0282,-0.0343,-0.0349,-0.0333,-0.0336,-0.0338,-0.0339,0,0,0,0,0,0,0,-0.008,-0.0084,-0.0111,-0.0113,-0.0117,-0.0136,-0.0141,-0.0184,-0.021,-0.016,-0.0163,-0.0169,-0.0269,-0.0277,-0.0286,-0.035,-0.0333,-0.0337,-0.034,-0.0342,-0.0385,-0.0384,0,0,0,0,0,0,-0.0072,-0.0081,-0.011,-0.0113,-0.0101,-0.0137,-0.0142,-0.0144,-0.0208,-0.0218,-0.0169,-0.0171,-0.0269,-0.028,-0.029,-0.028,-0.0338,-0.0342,-0.0345,-0.0387,-0.0385,-0.0383,0,0,0,0,0,0,-0.0071,-0.0073,-0.0108,-0.0099,-0.0104,-0.0136,-0.0139,-0.0145,-0.015,-0.0214,-0.0225,-0.0168,-0.027,-0.0284,-0.0301,-0.0287,-0.0344,-0.0349,-0.0389,-0.0386,-0.0384,-0.0283,0,0,0,0,0,0,-0.0069,-0.0073,-0.007,-0.0098,-0.0104,-0.0109,-0.0138,-0.0145,-0.0153,-0.0156,-0.0217,-0.023,-0.0272,-0.0293,-0.0305,-0.0294,-0.0352,-0.0391,-0.0388,-0.0385,-0.0289,-0.0278,-0.0268,0,0,0,0,0,-0.0068,-0.0057,-0.0069,-0.0073,-0.01,-0.0108,-0.0113,-0.0138,-0.0153,-0.0147,-0.0174,-0.0228,-0.0282,-0.0295,-0.031,-0.03,-0.0392,-0.0389,-0.0385,-0.0293,-0.028,-0.0269,0,0,0,0,0,0,-0.0038,-0.0061,-0.0075,-0.0072,-0.0085,-0.0114,-0.0113,-0.0131,-0.0148,-0.0154,-0.0209,-0.0222,-0.0234,-0.0274,-0.0286,-0.03,-0.0346,-0.0345,-0.0271,-0.0259,-0.0249,-0.0241,-0.0356,0,0,0,0,0,-0.003,-0.003,-0.0054,-0.005,-0.0054,-0.0082,-0.0089,-0.0107,-0.0128,-0.0136,-0.0167,-0.0203,-0.0231,-0.0248,-0.0281,-0.0291,-0.0342,-0.0292,-0.0281,-0.0273,-0.0274,-0.0316,-0.031,-0.0371,-0.0371,-0.0371,0,0,-0.0019,-0.0031,-0.0032,-0.0044,-0.0058,-0.0046,-0.0087,-0.0093,-0.0079,-0.0149,-0.0134,-0.0173,-0.0224,-0.0228,-0.0238,-0.0261,-0.0281,-0.0268,-0.026,-0.0267,-0.0311,-0.0306,-0.0301,-0.0368,-0.0369,-0.0369,0,0,0.0012,-0.0004,0.0009,0.0007,-0.0009,-0.0022,-0.0019,-0.0038,-0.0042,-0.0036,-0.0079,-0.0103,-0.0136,-0.0169,-0.0192,-0.0146,-0.0226,-0.0155,-0.0101,-0.014,-0.0136,-0.0133,-0.0191,-0.0194,-0.0148,-0.0148,-0.0148,0,0.0026,0.0036,0.0013,0.0032,0.0028,-0.0003,0.0011,0.0016,-0.0002,-0.0003,-0.0016,-0.0061,-0.0109,-0.0125,-0.0103,-0.0127,-0.0165,-0.0144,-0.0128,-0.0126,-0.0125,-0.0185,-0.019,-0.0143,-0.0143,-0.0144,-0.0144,0,0.0066,0.0079,0.009,0.0102,0.0099,0.0105,0.0099,0.011,0.01,0.0094,0.0084,0.0034,0.0003,-0.0011,-0.0045,-0.0055,-0.009,-0.0112,-0.0162,-0.0113,-0.018,-0.0186,-0.0135,-0.0137,-0.0139,-0.014,0,0,0.0085,0.011,0.0115,0.0128,0.0128,0.013,0.0161,0.0167,0.0176,0.0179,0.0177,0.0151,0.0119,0.0091,0.0041,0.0008,-0.0019,-0.0037,-0.0042,-0.0099,-0.0116,-0.0123,-0.0132,-0.0033,-0.0034,-0.0034,-0.0168,0,0.0119,0.0166,0.0161,0.0203,0.0222,0.0205,0.0234,0.0239,0.0228,0.023,0.0194,0.0171,0.0162,0.0126,0.0109,0.0014,-0.0031,0.0019,-0.0152,-0.0158,-0.0173,-0.0137,-0.0089,-0.0201,-0.0175,-0.0176,-0.0177,0,0.015,0.0181,0.0221,0.0245,0.0249,0.0273,0.0276,0.0292,0.0292,0.0278,0.0268,0.0231,0.0205,0.0163,0.0072,0.011,0.0006,-0.0071,-0.0079,-0.0126,-0.0175,-0.0245,-0.0215,-0.0189,-0.0188,-0.0187,-0.0186,0,0.0163,0.0212,0.024,0.0252,0.0287,0.03,0.0309,0.0312,0.0334,0.0293,0.0296,0.0261,0.0236,0.0145,0.0048,0.0045,-0.008,-0.0115,-0.0226,-0.023,-0.0244,-0.0247,-0.022,-0.022,-0.0219,-0.0219,-0.0219,0,0.0186,0.0216,0.0258,0.0282,0.0331,0.0322,0.0353,0.0354,0.0357,0.0404,0.0326,0.0359,0.0232,0.017,0.0054,-0.0072,-0.0066,-0.0217,-0.0257,-0.0207,-0.0204,-0.0238,-0.0238,-0.0224,-0.0223,-0.0222,-0.0221,0,0.02,0.022,0.0272,0.032,0.0343,0.0373,0.0419,0.0453,0.0425,0.0475,0.047,0.0436,0.0366,0.0223,0.0049,-0.006,-0.0207,-0.0277,-0.0212,-0.0241,-0.0347,-0.034,-0.0426,-0.0427,-0.0428,-0.0429,-0.0429,0,0.0207,0.0241,0.0313,0.0358,0.0388,0.0436,0.0491,0.0497,0.0551,0.0565,0.0621,0.0539,0.0547,0.029,0.0066,-0.0172,-0.0212,-0.0333,-0.0336,-0.0333,-0.0365,-0.0356,-0.0349,-0.0328,-0.0328,-0.0328,-0.0328,0,0.0252,0.0277,0.0321,0.0422,0.0491,0.0564,0.0646,0.0713,0.0742,0.0798,0.0882,0.0868,0.0621,0.043,0.0063,-0.0095,-0.0282,-0.034,-0.0354,-0.0268,-0.0248,-0.0276,-0.0271,-0.0326,-0.0327,-0.0327,-0.0327,-0.0327,0.0284,0.0323,0.0398,0.0486,0.0572,0.0696,0.0783,0.0898,0.1023,0.1121,0.1091,0.1073,0.077,0.0357,0.007,-0.0253,-0.0262,-0.0394,-0.0392,-0.039,-0.034,-0.032,-0.0405,-0.0406,-0.0406,-0.0407,-0.0407,0,0.0336,0.0382,0.0468,0.0579,0.069,0.0722,0.0896,0.1002,0.1195,0.1278,0.1329,0.1057,0.0799,0.0464,0.0005,-0.0301,-0.032,-0.0403,-0.0352,-0.0352,-0.0352,-0.0297,-0.0353,-0.0354,-0.0354,-0.0355,0,0,0.0365,0.0453,0.0494,0.0671,0.0746,0.0909,0.1015,0.1184,0.1302,0.1416,0.1413,0.1314,0.0915,0.0586,0.0185,-0.0066,-0.0141,-0.0126,-0.0139,-0.0031,-0.0027,-0.032,-0.0232,0,0,0,0,0]}],[{"header":{"parameterUnit":"m.s-1","parameterCategory":2,"la1":30.2991,"la2":30.254,"lo1":-89.0895,"lo2":-89.0444,"dy":0.0017,"dx":0.0017,"nx":28,"ny":28,"refTime":"2025-08-04T21:00:00:Z","depth":"4","parameterNumber":2,"parameterNumberName":"U-component_of_CURRENTS"},"data":[0,0,0,0,0,0,0,0,0,0,0,0,0,0,0,0,0,0,0,0,0,0,0,0,0,0,0,0,0,0,0,0,0,0,0,0,0,0,0,0,0,0,0,0,0,0,0,0,0,0,0,0,0,0,0,0,0,0,0.1529,0.1529,0,0.1529,0.1529,0.1529,0.1571,0.1572,0.1573,0.1574,0.1538,0.1536,0.1534,0,0,0,0,0,0,0,0,0,0,0,0,0,0.1459,0.146,0.1529,0.1529,0.1529,0.1529,0.1529,0.1529,0.1571,0.1572,0.1573,0.1575,0.1538,0.1536,0.1533,0,0,0,0,0,0,0,0,0,0,0,0,0,0.1476,0.1461,0.1529,0.1551,0.1553,0.1529,0.1529,0.1529,0.157,0.1572,0.1574,0.1575,0.1539,0.1536,0.1533,0.1478,0,0,0.1524,0.1522,0,0,0,0,0,0,0,0,0.1475,0.1479,0.1548,0.1549,0.1552,0.1553,0.1491,0.1511,0.157,0.1562,0.1574,0.1576,0.1539,0.1536,0.1531,0.1477,0.1475,0.1523,0.1521,0.152,0.1519,0,0,0,0,0,0,0,0.1474,0.1478,0.1528,0.1547,0.155,0.1524,0.153,0.1495,0.1539,0.1563,0.1567,0.1568,0.154,0.1534,0.153,0.1474,0.1523,0.1521,0.1519,0.1518,0.1376,0.1374,0,0,0,0,0,0,0.148,0.1478,0.1528,0.1528,0.1518,0.1525,0.153,0.155,0.154,0.1541,0.1566,0.157,0.1538,0.1534,0.1529,0.1602,0.152,0.1517,0.1515,0.1378,0.1376,0.1374,0,0,0,0,0,0,0.1479,0.1485,0.1528,0.1502,0.1507,0.1525,0.1545,0.1549,0.1578,0.1543,0.1544,0.1597,0.1539,0.1533,0.1557,0.1596,0.1516,0.1513,0.138,0.1377,0.1375,0.1659,0,0,0,0,0,0,0.1477,0.1485,0.1512,0.1504,0.1508,0.1537,0.1544,0.1548,0.1575,0.158,0.1568,0.1565,0.154,0.1562,0.1554,0.159,0.1511,0.1383,0.1379,0.1376,0.1652,0.1667,0.1679,0,0,0,0,0,0.1475,0.1492,0.1513,0.152,0.1541,0.1538,0.1538,0.1554,0.1575,0.1588,0.1607,0.1567,0.153,0.1562,0.1551,0.1588,0.1384,0.138,0.1376,0.1646,0.1664,0.1679,0,0,0,0,0,0,0.1471,0.1498,0.1521,0.1547,0.1557,0.1546,0.1561,0.1571,0.1594,0.1613,0.1588,0.1586,0.1625,0.1529,0.1564,0.1514,0.143,0.1424,0.1638,0.1654,0.1667,0.1671,0.1508,0,0,0,0,0,0.1484,0.1513,0.1525,0.155,0.1561,0.1569,0.1576,0.1589,0.1599,0.1613,0.1608,0.1578,0.1584,0.1568,0.1546,0.1527,0.148,0.1513,0.1526,0.1539,0.1522,0.1534,0.1552,0.136,0.136,0.136,0,0,0.1489,0.1508,0.1525,0.1552,0.1565,0.158,0.1579,0.16,0.1626,0.1601,0.1644,0.1655,0.1595,0.1614,0.1609,0.1549,0.1569,0.1534,0.1548,0.1522,0.1532,0.1553,0.157,0.1357,0.1357,0.1358,0,0,0.1494,0.1535,0.1557,0.1568,0.1595,0.1604,0.162,0.1633,0.1662,0.1705,0.1707,0.1749,0.1708,0.1703,0.1689,0.1731,0.1669,0.1684,0.1744,0.176,0.1779,0.1795,0.1798,0.1812,0.1659,0.166,0.166,0,0.1503,0.153,0.156,0.1576,0.1585,0.1622,0.1635,0.1667,0.1691,0.1719,0.1743,0.1764,0.1756,0.1782,0.1818,0.1777,0.1759,0.1729,0.1793,0.1806,0.1818,0.1816,0.1828,0.1673,0.1671,0.167,0.1669,0,0.151,0.1542,0.1552,0.1597,0.1615,0.1629,0.1672,0.1717,0.1773,0.1802,0.1876,0.1897,0.1894,0.1904,0.1901,0.1948,0.1905,0.1859,0.1793,0.1858,0.1848,0.1856,0.1692,0.1687,0.1683,0.168,0,0,0.1492,0.1549,0.1554,0.1567,0.1623,0.1626,0.1703,0.1759,0.1812,0.1882,0.1935,0.2016,0.204,0.2016,0.201,0.2032,0.2161,0.1989,0.1984,0.2062,0.2198,0.2082,0.2078,0.2153,0.2155,0.2156,0.2177,0,0.1487,0.1513,0.1548,0.1574,0.1584,0.1647,0.1704,0.1771,0.1853,0.1918,0.1983,0.2044,0.2071,0.2106,0.2146,0.2155,0.2184,0.2158,0.2056,0.2051,0.2001,0.2083,0.2161,0.2182,0.2184,0.2185,0.2185,0,0.1464,0.1487,0.1513,0.1555,0.1568,0.1606,0.1699,0.175,0.187,0.1946,0.2037,0.208,0.2161,0.2162,0.2234,0.2222,0.2228,0.2232,0.2231,0.2017,0.1948,0.2077,0.2198,0.2197,0.2196,0.2195,0.2194,0,0.1391,0.1445,0.1465,0.1477,0.1551,0.1595,0.1646,0.1766,0.1827,0.1963,0.2045,0.2124,0.2186,0.2219,0.2275,0.2262,0.2329,0.2292,0.2185,0.2176,0.2157,0.2138,0.2326,0.2326,0.2326,0.2326,0.2326,0,0.1327,0.1337,0.1444,0.1439,0.1489,0.1551,0.1625,0.1714,0.1835,0.1913,0.2047,0.2119,0.2213,0.2268,0.2284,0.227,0.2339,0.2207,0.2178,0.2271,0.2265,0.2165,0.2146,0.2327,0.2327,0.2326,0.2326,0,0.1219,0.1286,0.131,0.1408,0.145,0.1481,0.1608,0.1663,0.1813,0.192,0.1973,0.2136,0.2228,0.2291,0.2339,0.2276,0.2266,0.2235,0.2345,0.232,0.2096,0.209,0.2102,0.2098,0.2095,0.2092,0.209,0,0.1159,0.1169,0.128,0.1316,0.1366,0.1443,0.1505,0.1645,0.1708,0.1919,0.1949,0.21,0.2197,0.2173,0.2246,0.2248,0.2224,0.2184,0.2133,0.2104,0.2076,0.2075,0.2074,0.2085,0.2084,0.2083,0.2082,0,0.1052,0.1114,0.1145,0.1226,0.1296,0.1361,0.1454,0.1492,0.1657,0.1808,0.19,0.1959,0.205,0.2093,0.2119,0.2113,0.2189,0.2149,0.2155,0.2107,0.2083,0.2058,0.2061,0.2071,0.2073,0.2074,0.2074,0,0.0993,0.0998,0.1066,0.1131,0.1209,0.1255,0.1319,0.14,0.148,0.1707,0.1725,0.19,0.2027,0.2024,0.2047,0.2042,0.2004,0.191,0.1927,0.194,0.188,0.1826,0.1719,0,0,0,0,0,0.092,0.0923,0.0967,0.1022,0.1093,0.1149,0.1275,0.1348,0.1511,0.1531,0.1626,0.1712,0.1785,0.1859,0.1823,0.1967,0.2002,0.1913,0.19,0.2008,0.2021,0.1967,0,0,0,0,0,0,0.0874,0.0898,0.0924,0.0928,0.0951,0.102,0.1103,0.1221,0.1236,0.141,0.1459,0.1588,0.1681,0.1788,0.1784,0.1805,0.1755,0.2009,0.2004,0.2001,0.2013,0.2023,0.1972,0,0,0,0,0]},{"header":{"parameterUnit":"m.s-1","parameterCategory":2,"la1":30.2991,"la2":30.254,"lo1":-89.0895,"lo2":-89.0444,"dy":0.0017,"dx":0.0017,"nx":28,"ny":28,"refTime":"2025-08-04T21:00:00:Z","depth":"4","parameterNumber":3,"parameterNumberName":"V-component_of_CURRENTS"},"data":[0,0,0,0,0,0,0,0,0,0,0,0,0,0,0,0,0,0,0,0,0,0,0,0,0,0,0,0,0,0,0,0,0,0,0,0,0,0,0,0,0,0,0,0,0,0,0,0,0,0,0,0,0,0,0,0,0,0,-0.0089,-0.0089,0,-0.0112,-0.0112,-0.0113,-0.0142,-0.0142,-0.0143,-0.0143,-0.019,-0.019,-0.0191,0,0,0,0,0,0,0,0,0,0,0,0,0,-0.0067,-0.0067,-0.0088,-0.0089,-0.0089,-0.0112,-0.0112,-0.0113,-0.0142,-0.0142,-0.0143,-0.0144,-0.0189,-0.019,-0.0191,0,0,0,0,0,0,0,0,0,0,0,0,0,-0.0082,-0.0067,-0.0088,-0.0107,-0.0108,-0.0112,-0.0112,-0.0113,-0.0142,-0.0142,-0.0143,-0.0144,-0.0189,-0.019,-0.0191,-0.0184,0,0,-0.0195,-0.0196,0,0,0,0,0,0,0,0,-0.0081,-0.0082,-0.0104,-0.0105,-0.0107,-0.0125,-0.0122,-0.0138,-0.0142,-0.0129,-0.0143,-0.0144,-0.017,-0.0173,-0.0175,-0.0187,-0.0188,-0.0195,-0.0196,-0.0196,-0.0197,0,0,0,0,0,0,0,-0.008,-0.0082,-0.0098,-0.0104,-0.0106,-0.0113,-0.0116,-0.0125,-0.0145,-0.013,-0.0132,-0.0135,-0.0171,-0.0174,-0.0176,-0.0189,-0.0195,-0.0196,-0.0197,-0.0197,-0.0215,-0.0214,0,0,0,0,0,0,-0.0076,-0.0081,-0.0097,-0.0098,-0.0096,-0.0113,-0.0116,-0.0118,-0.0145,-0.0149,-0.0134,-0.0136,-0.0171,-0.0175,-0.0178,-0.0189,-0.0196,-0.0197,-0.0198,-0.0215,-0.0215,-0.0214,0,0,0,0,0,0,-0.0076,-0.0078,-0.0096,-0.009,-0.0093,-0.0112,-0.0115,-0.0119,-0.0124,-0.0148,-0.0153,-0.0137,-0.0172,-0.0176,-0.0193,-0.019,-0.0198,-0.0199,-0.0215,-0.0215,-0.0214,-0.0199,0,0,0,0,0,0,-0.0075,-0.0077,-0.0077,-0.009,-0.0093,-0.0095,-0.0114,-0.0118,-0.0125,-0.0128,-0.0151,-0.0156,-0.0173,-0.0191,-0.0194,-0.0192,-0.02,-0.0215,-0.0215,-0.0215,-0.02,-0.0199,-0.0197,0,0,0,0,0,-0.0074,-0.007,-0.0077,-0.0079,-0.0093,-0.0095,-0.0097,-0.0113,-0.0124,-0.0122,-0.0145,-0.0156,-0.019,-0.0192,-0.0195,-0.0194,-0.0216,-0.0215,-0.0215,-0.0201,-0.0199,-0.0197,0,0,0,0,0,0,-0.0059,-0.0073,-0.0081,-0.0081,-0.0087,-0.01,-0.01,-0.011,-0.0125,-0.013,-0.0155,-0.0161,-0.0178,-0.0184,-0.0185,-0.0196,-0.0203,-0.0203,-0.0191,-0.019,-0.0188,-0.0178,-0.0201,0,0,0,0,0,-0.0056,-0.0057,-0.0069,-0.0068,-0.007,-0.0084,-0.0088,-0.0096,-0.0111,-0.0118,-0.0135,-0.0153,-0.0176,-0.0182,-0.0199,-0.0201,-0.0224,-0.0201,-0.0199,-0.0198,-0.0191,-0.024,-0.0242,-0.0212,-0.0212,-0.0212,0,0,-0.0051,-0.0057,-0.0059,-0.0065,-0.0072,-0.0066,-0.0088,-0.0089,-0.0086,-0.012,-0.0123,-0.0152,-0.0178,-0.0189,-0.0195,-0.0193,-0.0217,-0.0197,-0.0196,-0.019,-0.024,-0.0243,-0.0245,-0.0212,-0.0212,-0.0212,0,0,-0.0034,-0.0045,-0.0038,-0.004,-0.0045,-0.0052,-0.0051,-0.0061,-0.0069,-0.0074,-0.0108,-0.0135,-0.0149,-0.0176,-0.0191,-0.0187,-0.0214,-0.0188,-0.0165,-0.0212,-0.0216,-0.0219,-0.0248,-0.0254,-0.0179,-0.0179,-0.0179,0,-0.0028,-0.0017,-0.0036,-0.0025,-0.0018,-0.0044,-0.0025,-0.0039,-0.0053,-0.0058,-0.007,-0.0117,-0.0144,-0.0173,-0.0175,-0.0185,-0.021,-0.0172,-0.0212,-0.0215,-0.0219,-0.0249,-0.0255,-0.0178,-0.0178,-0.0178,-0.0178,0,-0.0005,0.0007,0.0013,0.0018,0.0021,0.0034,0.0018,0.0016,0.0004,-0.0014,-0.0042,-0.0087,-0.0112,-0.013,-0.0153,-0.0187,-0.0196,-0.0213,-0.0219,-0.0221,-0.0252,-0.0259,-0.0177,-0.0177,-0.0178,-0.0178,0,0,0.0006,0.0026,0.003,0.0056,0.0051,0.0065,0.0063,0.0061,0.0064,0.0028,0.0024,-0.0036,-0.0067,-0.0086,-0.0126,-0.0169,-0.0221,-0.0195,-0.0198,-0.0227,-0.0316,-0.0285,-0.0291,-0.025,-0.0252,-0.0252,-0.0327,0,0.0035,0.0078,0.0075,0.0122,0.015,0.0134,0.0141,0.013,0.0109,0.0094,0.0026,0.0004,-0.0049,-0.006,-0.0118,-0.0198,-0.024,-0.0199,-0.0306,-0.0309,-0.0285,-0.0298,-0.0256,-0.0333,-0.0334,-0.0335,-0.0336,0,0.0064,0.0095,0.0147,0.0199,0.0208,0.0225,0.0245,0.025,0.0205,0.0184,0.0131,0.0078,0.0002,-0.0036,-0.0179,-0.0151,-0.0227,-0.0291,-0.0296,-0.0275,-0.0292,-0.0331,-0.035,-0.0349,-0.0348,-0.0347,-0.0346,0,0.0105,0.0154,0.0206,0.0219,0.0256,0.0279,0.0297,0.0277,0.0292,0.024,0.0236,0.0128,0.0089,-0.0036,-0.0169,-0.0177,-0.032,-0.0348,-0.0392,-0.039,-0.0403,-0.0399,-0.0442,-0.0442,-0.0442,-0.0442,-0.0442,0,0.0149,0.0195,0.0232,0.0262,0.0329,0.0336,0.0389,0.038,0.0371,0.0384,0.0288,0.0266,0.0087,-0.0016,-0.015,-0.0287,-0.0309,-0.0387,-0.041,-0.0393,-0.0387,-0.0408,-0.0403,-0.0445,-0.0444,-0.0444,-0.0443,0,0.0193,0.0211,0.028,0.0331,0.0352,0.0402,0.0464,0.0493,0.0475,0.0488,0.0478,0.0366,0.0229,0.0059,-0.0138,-0.0241,-0.0385,-0.0424,-0.0377,-0.0395,-0.0429,-0.0423,-0.0488,-0.0488,-0.0488,-0.0487,-0.0487,0,0.022,0.0258,0.0333,0.0373,0.0401,0.0473,0.0518,0.0539,0.0569,0.0547,0.0552,0.044,0.0344,0.0097,-0.0095,-0.0334,-0.0368,-0.0437,-0.0456,-0.042,-0.0436,-0.043,-0.0424,-0.0486,-0.0486,-0.0486,-0.0486,0,0.0275,0.0295,0.0347,0.0429,0.0489,0.0566,0.0633,0.0664,0.0681,0.0668,0.0619,0.0485,0.0337,0.0119,-0.0054,-0.0233,-0.0396,-0.0435,-0.0437,-0.0455,-0.0419,-0.0433,-0.0428,-0.0485,-0.0485,-0.0485,-0.0485,0,0.0309,0.0348,0.0406,0.0485,0.0559,0.063,0.0667,0.0704,0.0735,0.0709,0.069,0.052,0.0417,0.0172,0.0003,-0.0159,-0.0213,-0.0274,-0.0286,-0.0289,-0.0213,-0.0137,-0.0134,0,0,0,0,0,0.0341,0.0386,0.0457,0.0536,0.0612,0.0652,0.0728,0.0753,0.0771,0.0752,0.0727,0.059,0.034,0.0224,0.0068,-0.0008,-0.025,-0.0198,-0.0328,-0.0478,-0.048,-0.0422,0,0,0,0,0,0,0.0355,0.0424,0.0459,0.0565,0.0619,0.0702,0.0747,0.0759,0.0753,0.0741,0.0614,0.0549,0.0307,0.0428,0.0062,0.0012,-0.0092,-0.0315,-0.0319,-0.0477,-0.0479,-0.048,-0.0421,0,0,0,0,0]}]]